SCP
8 8 9 9 8 5 4 4 4 4 4 3 3 3 3 3 3 3 3 3 3 3 3 3 3 3 2 2 1 1 2 2 1 1 1 2 4 4 3 2 1 1 1
8 8 9 9 7 5 4 4 4 4 4 3 3 3 3 3 3 3 3 3 3 3 3 3 3 3 3 3 3 2 2 2 2 2 1 2 4 4 3 2 1 1 1
7 7 7 7 5 4 4 4 4 4 4 3 3 3 3 3 3 3 3 3 3 3 3 3 3 4 4 4 4 4 4 4 4 2 1 2 3 4 5 3 1 1 1
6 6 6 5 5 4 4 4 4 4 3 3 3 3 3 3 3 3 3 3 3 3 3 3 3 4 4 4 4 5 5 5 5 3 2 2 3 4 5 4 2 1 1
6 5 5 5 5 5 5 4 4 4 3 3 4 4 4 3 3 2 2 2 2 2 2 2 3 3 3 3 3 3 4 4 4 3 2 2 3 4 4 3 2 1 1
4 4 4 4 5 5 5 5 5 5 4 4 4 4 4 4 3 2 2 2 2 2 2 2 2 2 1 1 1 1 2 2 2 1 1 1 2 3 3 3 2 1 1
4 3 3 4 4 5 5 6 7 6 6 5 5 4 4 4 2 1 1 2 2 2 1 1 1 1 1 1 1 1 1 1 1 1 1 1 2 3 3 2 1 1 1
4 3 3 4 4 4 5 6 7 7 7 6 5 5 4 3 2 1 1 2 2 2 2 1 1 1 2 2 2 2 2 1 1 1 1 1 2 2 2 2 1 1 1
4 3 3 3 4 4 5 7 7 7 7 6 5 5 4 3 2 0 1 2 2 2 2 1 1 1 2 2 2 3 3 2 2 1 1 1 1 1 1 1 1 1 1
4 4 3 3 4 5 7 8 8 7 7 6 6 5 5 3 1 0 1 2 3 2 2 2 1 1 1 1 2 2 2 2 2 2 1 1 1 1 1 1 1 1 1
5 4 4 4 5 7 9 9 8 6 6 7 6 6 5 3 2 1 1 2 3 2 2 2 2 1 1 1 1 2 2 2 2 2 2 3 3 2 1 1 1 1 1
5 4 5 5 6 8 9 8 7 6 7 7 7 6 5 4 2 1 1 1 2 2 2 2 2 1 1 0 1 1 1 2 2 2 2 3 3 3 2 1 1 1 1
3 3 4 4 5 6 7 6 5 6 7 8 8 6 5 5 4 2 1 1 1 2 3 2 2 1 1 1 1 1 1 2 2 2 2 3 3 3 2 1 1 1 1
3 3 3 3 3 4 4 4 4 5 7 8 7 5 4 5 4 3 2 2 2 2 3 3 2 2 2 2 1 1 1 2 2 2 2 2 3 3 2 1 1 1 1
3 3 3 2 2 3 3 3 3 4 6 6 5 4 3 3 4 4 3 2 2 2 3 3 4 5 5 4 3 3 2 2 2 2 3 3 2 2 2 1 1 1 1
3 3 3 2 2 3 3 3 2 3 4 3 2 2 2 2 2 2 2 2 2 2 2 4 6 7 8 7 6 4 3 3 3 3 3 3 2 2 2 1 1 1 1
2 2 2 2 3 4 4 4 4 3 3 2 1 1 1 1 1 1 0 1 1 1 3 5 6 8 9 9 8 6 5 5 5 4 4 3 2 1 1 1 1 1 1
2 2 3 3 5 6 6 6 5 5 4 2 1 1 1 1 0 0 0 1 1 2 3 5 6 7 8 9 9 8 7 7 7 6 5 3 2 2 1 1 1 1 1
2 2 3 4 5 6 7 7 7 6 5 4 3 2 1 1 0 0 1 2 3 3 4 5 6 6 7 8 8 9 9 9 9 7 6 4 3 2 1 1 1 1 1
2 1 2 2 3 4 5 6 7 6 6 5 5 4 3 2 1 1 1 3 4 4 5 5 6 6 7 8 9 9 10 10 9 8 7 5 3 2 1 1 1 1 1
1 1 1 1 1 2 2 3 4 5 5 5 5 5 3 3 2 2 2 4 5 6 6 6 7 7 8 9 9 9 9 8 8 7 6 5 3 2 1 1 1 1 1
1 1 1 1 1 1 1 2 3 3 4 4 4 3 3 2 3 3 3 4 5 6 7 7 7 7 8 9 9 9 7 6 6 6 6 5 3 2 1 1 1 1 0
1 1 1 1 1 1 2 2 3 3 3 3 4 3 3 3 3 4 5 5 6 7 7 7 7 7 8 8 8 7 6 4 4 4 4 3 2 2 1 1 1 1 0
1 1 1 1 1 1 2 3 3 4 4 4 4 4 4 4 4 5 6 6 6 6 7 7 6 6 7 6 6 5 5 4 3 3 3 2 2 1 1 1 1 1 0
1 1 1 1 0 1 1 2 3 4 5 6 6 6 5 5 5 6 6 5 5 6 6 6 5 5 5 5 4 4 3 2 2 2 2 2 2 2 1 1 1 1 1
0 0 0 0 0 0 0 1 2 4 6 7 7 6 5 5 5 5 5 5 4 5 5 5 5 4 4 4 4 3 2 1 1 1 2 2 2 2 2 1 1 1 1
Wind_Speed
4 4 5 6 7 7 6 6 5 5 5 5 5 5 5 5 5 4 4 3 4 3 3 3 3 3 3 3 3 3 3 4 4 4 3 2 2 4 2 3 3 3 1
4 5 5 5 6 6 6 6 6 5 5 5 5 5 5 5 5 5 5 4 4 4 4 4 4 3 4 4 3 4 3 3 5 5 4 3 3 3 3 4 4 3 2
3 4 4 5 5 6 6 6 6 6 6 6 6 5 5 5 5 5 5 5 5 5 4 4 4 4 5 4 4 4 4 4 4 4 4 3 3 3 3 4 4 3 4
3 3 4 4 5 6 6 6 6 6 6 6 6 6 6 6 6 6 6 6 5 5 5 5 5 5 5 5 5 5 4 5 4 5 4 3 3 3 3 3 3 3 4
3 3 3 3 4 5 5 6 6 6 6 5 5 5 5 5 4 4 5 6 5 5 5 5 5 4 4 5 5 5 5 5 5 4 4 4 3 3 3 4 4 4 3
2 3 3 3 4 4 5 6 6 6 6 5 5 5 5 3 2 2 4 5 5 5 5 5 5 5 5 7 7 7 7 7 6 6 5 4 4 4 4 4 5 5 4
3 3 3 3 4 4 5 6 6 6 6 6 5 5 4 3 3 3 4 5 5 4 4 4 5 3 3 5 5 7 8 9 8 8 7 6 5 4 5 5 5 5 5
3 3 3 3 3 3 4 5 6 5 5 5 5 5 4 3 5 4 4 6 5 5 5 5 5 5 3 4 5 5 6 5 6 7 6 7 6 4 5 6 6 5 5
3 3 3 3 3 3 4 4 5 5 5 5 5 5 4 4 5 5 5 5 5 5 5 5 5 5 1 2 5 5 5 4 3 3 4 4 4 4 5 5 5 5 5
3 3 3 3 3 4 4 4 3 4 5 5 5 4 4 4 5 5 6 5 5 5 5 4 3 3 1 3 5 5 5 4 4 3 3 4 5 5 5 5 5 5 5
3 3 3 3 4 4 4 3 3 4 4 4 4 4 4 4 6 7 6 5 5 5 4 4 2 3 3 4 6 5 4 4 5 5 4 4 4 3 4 4 4 5 5
3 3 3 3 4 3 4 3 4 4 5 5 5 5 4 5 5 6 7 7 6 5 4 3 1 3 4 5 5 4 4 5 5 4 4 4 3 3 2 2 3 4 4
3 3 3 3 3 3 3 3 4 4 4 4 4 4 3 3 4 7 8 8 7 6 4 2 2 3 5 5 6 6 6 5 5 5 4 4 3 2 2 2 3 4 5
3 3 3 3 3 3 3 3 3 3 4 4 3 3 3 2 2 3 4 5 7 6 4 3 5 7 6 4 4 5 5 4 5 5 4 3 3 3 3 3 3 3 4
3 3 3 3 3 3 3 2 3 2 1 3 3 3 3 3 0 1 2 2 2 2 3 4 4 3 4 3 3 3 4 4 5 4 4 3 3 3 3 3 3 4 5
3 3 3 3 2 3 2 2 1 1 1 2 2 4 3 1 1 2 2 3 3 3 5 5 4 4 4 4 4 4 4 4 4 4 4 4 4 4 4 4 4 4 5
3 3 3 3 3 3 3 3 2 2 4 5 4 4 5 3 3 4 4 4 5 5 6 5 4 4 4 4 4 4 4 4 3 4 4 4 4 4 4 4 4 4 5
3 3 3 3 3 2 2 3 3 3 3 3 4 6 7 6 5 5 5 4 4 6 5 5 4 4 4 4 4 4 4 4 4 4 4 4 4 4 4 5 4 5 5
3 2 2 2 2 2 2 3 3 3 3 2 2 3 5 6 6 5 6 5 3 4 4 4 4 4 3 3 3 3 4 4 4 4 4 4 4 4 4 5 5 4 6
2 1 2 3 3 3 3 3 3 3 3 2 3 2 1 2 2 2 3 3 3 3 4 4 3 3 3 3 3 3 4 4 4 4 4 4 4 4 5 6 5 5 5
2 1 2 3 3 3 3 3 3 3 3 2 2 1 1 2 2 2 2 3 3 4 3 3 3 3 3 3 3 4 4 3 3 3 3 4 4 5 5 5 5 5 5
2 1 2 2 2 2 2 3 3 3 2 2 2 1 3 3 3 2 2 2 3 3 3 3 3 3 3 3 3 3 3 3 3 3 3 4 4 5 5 5 5 5 5
2 1 1 2 2 2 2 2 2 2 2 2 2 2 2 2 2 2 2 2 2 3 3 3 4 3 2 2 3 3 3 3 3 3 4 4 4 5 5 5 6 6 5
1 1 1 1 1 1 1 1 2 2 2 2 2 2 2 2 2 3 3 2 2 3 3 3 3 3 3 3 2 2 2 2 4 4 5 5 6 5 5 5 6 6 5
1 1 1 1 1 1 1 2 2 2 2 2 2 2 2 2 2 2 2 2 2 2 3 3 3 3 3 3 3 2 2 1 2 4 5 5 6 6 6 6 5 5 5
2 2 1 1 1 1 1 1 1 2 2 2 2 2 2 2 2 2 2 2 2 2 2 2 2 3 2 2 2 2 1 1 2 3 5 5 6 6 6 5 6 5 5
Wind_Direction
191 198 195 195 194 198 205 207 203 205 205 208 208 208 207 207 206 214 227 219 232 241 253 250 259 284 285 284 280 282 285 289 291 295 307 327 309 298 309 295 272 264 235
196 198 196 202 203 203 205 209 207 206 210 211 214 215 216 210 211 217 225 223 231 239 246 254 259 259 266 277 283 284 286 291 281 289 295 297 295 287 286 288 279 269 285
196 200 201 208 209 209 209 210 211 211 214 214 215 217 221 219 216 222 226 229 233 236 242 250 255 257 261 266 272 274 274 271 273 276 279 292 283 291 285 273 281 281 275
200 204 213 217 218 216 213 212 214 215 218 216 216 219 220 220 219 221 225 229 233 234 239 248 254 255 260 265 262 265 270 276 271 270 274 273 273 275 278 280 282 271 277
208 209 218 223 224 220 212 211 211 213 218 218 218 219 218 217 217 227 228 226 227 233 238 245 252 262 280 274 280 279 273 271 273 272 271 272 276 285 286 287 288 285 271
224 223 222 225 225 220 213 209 210 212 216 217 217 214 215 211 149 224 253 236 232 234 241 250 249 229 237 239 251 263 272 269 277 280 277 282 283 284 291 288 285 284 285
243 243 227 222 221 221 218 207 205 207 209 212 218 216 218 189 158 198 238 246 238 236 240 248 260 265 255 266 248 241 246 246 251 269 278 283 285 285 289 281 282 289 296
224 235 242 233 219 214 216 212 208 208 211 213 217 216 216 190 167 199 228 233 239 237 240 248 257 270 277 283 274 266 264 257 249 248 267 279 286 291 279 279 281 271 264
221 232 235 234 223 215 218 221 214 206 208 212 213 215 214 189 178 201 227 232 231 237 240 242 251 258 273 275 264 266 271 271 254 240 263 276 299 290 284 275 271 273 278
227 231 229 228 227 225 225 226 222 211 210 213 209 214 213 208 182 194 226 239 237 238 230 226 212 252 270 230 257 263 264 270 284 270 239 238 241 238 233 250 269 274 282
225 224 224 225 228 223 220 221 222 217 208 209 205 208 212 216 187 189 216 243 251 251 249 244 214 175 223 233 255 267 274 281 267 260 251 245 235 230 229 237 259 271 282
215 222 226 228 235 218 213 215 216 210 201 202 203 210 208 205 202 189 202 228 263 258 260 268 276 154 217 238 247 271 276 267 257 254 254 257 260 260 255 264 266 271 282
222 225 225 230 230 222 216 217 218 212 216 213 209 208 206 204 187 186 198 213 228 244 269 293 277 221 231 237 230 238 244 248 258 261 261 266 277 290 283 262 254 255 257
234 240 236 235 228 213 219 223 229 230 227 224 227 227 219 213 210 199 201 202 206 221 246 238 214 215 229 252 250 225 236 253 262 264 272 278 281 267 259 261 259 256 257
233 237 237 238 237 226 223 233 246 253 272 263 261 257 247 239 166 6 288 259 267 274 264 250 249 241 237 235 244 250 247 245 247 253 258 263 265 263 265 265 265 268 273
224 230 237 231 225 228 225 212 116 208 139 201 259 276 280 279 268 247 244 254 252 244 245 245 244 247 253 259 259 253 246 248 254 260 259 261 265 260 261 262 260 266 272
240 241 243 241 231 229 237 236 223 195 194 207 219 232 240 253 253 245 240 238 238 220 233 242 244 243 250 257 261 263 263 261 257 254 256 262 265 265 263 264 265 269 272
253 247 250 247 247 242 243 248 245 243 226 216 204 201 204 209 221 232 228 224 225 215 237 245 245 248 252 258 262 265 269 267 262 260 259 261 268 271 272 270 268 272 275
256 264 270 276 266 257 257 261 260 252 248 249 252 200 188 193 202 215 209 236 240 239 242 246 249 252 258 260 264 268 269 270 276 276 271 269 271 271 271 273 274 268 270
237 271 269 269 263 258 254 262 271 270 261 257 259 265 196 210 238 217 221 250 255 252 256 258 259 262 263 263 263 265 266 266 265 266 273 274 270 271 271 273 277 275 269
256 210 222 252 262 270 271 273 274 273 267 263 271 2 350 270 269 268 261 262 266 267 263 266 263 253 250 250 256 263 265 268 272 277 282 283 280 279 281 281 279 277 278
275 262 255 266 266 266 273 275 277 274 272 269 258 189 193 249 266 272 274 276 274 270 266 261 261 260 259 262 262 265 263 265 272 277 277 277 278 279 279 278 279 281 280
273 279 272 274 274 257 254 266 271 273 272 265 262 264 252 268 281 281 276 278 280 277 270 261 257 256 262 268 270 268 269 275 278 280 278 276 274 273 277 279 280 281 282
288 295 305 304 308 313 315 303 294 295 296 289 282 278 279 284 290 305 304 306 298 287 283 277 273 272 277 276 271 267 283 302 289 271 269 273 272 272 275 278 280 281 278
337 347 356 5 358 350 338 332 336 330 312 302 297 293 291 298 306 311 310 310 301 297 301 299 296 291 292 293 296 310 22 6 293 290 275 269 271 273 276 276 277 277 274
2 360 357 13 21 2 350 346 341 330 318 310 304 302 303 299 298 306 307 307 306 304 296 296 304 304 306 304 335 1 33 278 262 267 267 263 271 275 280 279 277 274 271